Station Historical Data
Daily Summary for May 25, 2017 Units:  Metric    English   Both
« Previous Day
Next Day »
Daily Weekly Monthly Yearly Custom
  High: Low: Average:
Temperature: 21.4 °C 13.2 °C 16.5 °C
Dew Point: 13.1 °C 10.5 °C 11.9 °C
Humidity: 92% 51% 76%
Wind Speed: 3.2km/h 0km/h 0.3km/h
Wind Gust: 11.3km/h - -
Wind- - West
Pressure: 1013.4 hPa 1001.9 hPa -
Precipitation: 1.52 mm    
Historical Graphs
 
 
Tabular Data for May 25, 2017
Time Temperature Dew Point Pressure Wind Wind Speed Wind Gust Humidity Rainfall Rate (Hourly) Conditions
00:00 15 °C 12.3 °C 1001.9 hPa Calm     84% 0 mm RA
00:10 14.9 °C 12.4 °C 1002.3 hPa Calm   1.6 km/h 85% 0 mm SCT
00:20 15 °C 12.8 °C 1002.3 hPa Calm   1.6 km/h 87% 0 mm SCT
00:30 14.7 °C 12.7 °C 1002.3 hPa Calm   1.6 km/h 88% 0.25 mm SCT
00:40 14.5 °C 12.7 °C 1002.3 hPa Calm     89% 0.25 mm SCT
00:50 14.4 °C 12.8 °C 1002.3 hPa Calm     90% 0 mm SCT
01:00 14.3 °C 12.9 °C 1002.3 hPa Calm     91% 0.25 mm SCT
01:10 14.3 °C 12.9 °C 1002.3 hPa Calm     91% 0 mm SCT
01:20 14.3 °C 12.8 °C 1002.3 hPa Calm   1.6 km/h 91% 0 mm SCT
01:30 14.3 °C 13.1 °C 1002.6 hPa Calm   1.6 km/h 92% 0.25 mm SCT
01:40 14.2 °C 12.9 °C 1002.6 hPa Calm   1.6 km/h 92% 0.25 mm SCT
01:50 14.2 °C 12.9 °C 1002.6 hPa Calm   1.6 km/h 92% 0 mm SCT
02:00 14.2 °C 12.9 °C 1002.6 hPa Calm   1.6 km/h 92% 0 mm SCT
02:10 14.1 °C 12.8 °C 1002.6 hPa Calm   1.6 km/h 92% 0 mm SCT
02:20 14 °C 12.7 °C 1002.6 hPa Calm     92% 0 mm SCT
02:30 14 °C 12.7 °C 1002.6 hPa Calm     92% 0 mm SCT
02:40 13.9 °C 12.7 °C 1002.6 hPa Calm     92% 0 mm SCT
02:50 13.9 °C 12.6 °C 1002.6 hPa Calm     92% 0 mm SCT
03:00 13.9 °C 12.6 °C 1002.6 hPa Calm     92% 0 mm SCT
03:10 13.9 °C 12.6 °C 1002.6 hPa Calm   1.6 km/h 92% 0 mm SCT
03:20 13.8 °C 12.6 °C 1002.6 hPa Calm   1.6 km/h 92% 0 mm SCT
03:30 13.8 °C 12.6 °C 1002.6 hPa Calm   1.6 km/h 92% 0.25 mm RA
03:40 13.8 °C 12.5 °C 1002.6 hPa Calm   3.2 km/h 92% 0 mm SCT
03:50 13.8 °C 12.6 °C 1002.6 hPa Calm   1.6 km/h 92% 0 mm SCT
04:00 13.7 °C 12.4 °C 1002.6 hPa Calm   1.6 km/h 92% 0 mm SCT
04:10 13.2 °C 11.9 °C 1002.6 hPa Calm     92% 0 mm SCT
04:20 13.2 °C 11.9 °C 1002.9 hPa Calm     92% 0 mm SCT
04:30 13.2 °C 11.9 °C 1002.9 hPa Calm     92% 0 mm SCT
04:40 13.2 °C 11.9 °C 1003.3 hPa Calm     92% 0 mm SCT
04:50 13.2 °C 11.9 °C 1003.3 hPa Calm     92% 0 mm SCT
05:00 13.2 °C 11.9 °C 1003.3 hPa Calm     92% 0 mm SCT
05:10 13.2 °C 11.9 °C 1003.3 hPa Calm     92% 0 mm SCT
05:20 13.2 °C 11.9 °C 1003.3 hPa Calm     92% 0 mm SCT
05:30 13.2 °C 11.9 °C 1003.6 hPa Calm     92% 0 mm SCT
05:40 13.2 °C 11.9 °C 1003.6 hPa Calm     92% 0 mm SCT
05:50 13.2 °C 11.9 °C 1003.9 hPa Calm     92% 0 mm SCT
06:00 13.2 °C 11.9 °C 1003.9 hPa Calm     92% 0 mm SCT
06:10 13.2 °C 11.9 °C 1003.9 hPa Calm     92% 0 mm SCT
06:20 13.2 °C 11.9 °C 1004.3 hPa Calm     92% 0 mm SCT
06:30 13.2 °C 11.9 °C 1004.3 hPa Calm     92% 0 mm SCT
06:40 13.2 °C 11.9 °C 1004.3 hPa Calm     92% 0 mm SCT
06:50 13.2 °C 11.9 °C 1004.6 hPa Calm     92% 0 mm SCT
07:00 13.2 °C 11.9 °C 1004.6 hPa Calm     92% 0 mm SCT
07:10 13.2 °C 11.9 °C 1005 hPa Calm     92% 0 mm SCT
07:20 13.2 °C 11.9 °C 1005 hPa Calm     92% 0 mm SCT
07:40 13.2 °C 11.9 °C 1005.3 hPa Calm     92% 0 mm SCT
07:50 13.2 °C 11.9 °C 1005.6 hPa Calm     92% 0 mm SCT
08:00 13.2 °C 11.9 °C 1005.6 hPa Calm     92% 0 mm SCT
08:10 13.2 °C 11.9 °C 1006 hPa Calm     92% 0 mm SCT
08:20 13.2 °C 11.9 °C 1006.3 hPa Calm     92% 0 mm SCT
08:30 13.2 °C 11.9 °C 1006.3 hPa Calm     92% 0 mm SCT
08:40 13.2 °C 11.9 °C 1006.7 hPa Calm     92% 0 mm SCT
08:50 13.2 °C 11.9 °C 1006.7 hPa Calm     92% 0 mm SCT
09:00 13.2 °C 11.9 °C 1006.7 hPa Calm     92% 0 mm SCT
09:10 13.3 °C 11.8 °C 1006.7 hPa Calm     91% 0 mm SCT
09:20 13.7 °C 12.1 °C 1006.7 hPa Calm   3.2 km/h 90% 0 mm SCT
09:30 14 °C 12.2 °C 1006.7 hPa Calm   4.8 km/h 89% 0 mm SCT
09:40 14.5 °C 12.2 °C 1006.7 hPa Calm   4.8 km/h 86% 0 mm SCT
09:50 14.8 °C 12.5 °C 1007 hPa SW 1.6 km/h 4.8 km/h 86% 0 mm SCT
10:00 15.2 °C 12.7 °C 1007.3 hPa Calm   1.6 km/h 85% 0 mm SCT
10:10 15.5 °C 12.3 °C 1007.3 hPa NW 1.6 km/h 8 km/h 81% 0 mm SCT
10:20 15.5 °C 12.4 °C 1007.7 hPa Calm   3.2 km/h 82% 0 mm SCT
10:30 16.1 °C 12.8 °C 1007.7 hPa WNW 1.6 km/h 8 km/h 81% 0 mm SCT
10:40 15.9 °C 12.7 °C 1007.7 hPa Calm   3.2 km/h 81% 0 mm SCT
10:50 16.2 °C 12.8 °C 1007.7 hPa WNW 1.6 km/h 4.8 km/h 80% 0 mm SCT
11:00 16.7 °C 12.8 °C 1007.7 hPa Calm   8 km/h 78% 0 mm SCT
11:20 17.3 °C 12.8 °C 1008 hPa Calm   1.6 km/h 75% 0 mm SCT
11:30 17.4 °C 12.9 °C 1008 hPa Calm   8 km/h 75% 0 mm SCT
11:40 17.6 °C 12.7 °C 1008.4 hPa SSE 3.2 km/h 9.7 km/h 73% 0 mm SCT
11:50 17.5 °C 12.2 °C 1008.4 hPa WNW 1.6 km/h 4.8 km/h 71% 0 mm SCT
12:00 17.6 °C 12.1 °C 1008.4 hPa WNW 1.6 km/h 8 km/h 70% 0 mm SCT
12:10 17.4 °C 12.5 °C 1008.4 hPa Calm   8 km/h 73% 0 mm SCT
12:20 18.4 °C 12.9 °C 1008.4 hPa WNW 1.6 km/h 11.3 km/h 70% 0 mm SCT
12:30 18.6 °C 12.6 °C 1008.7 hPa Calm   4.8 km/h 68% 0 mm SCT
12:40 18.5 °C 12.4 °C 1008.7 hPa Calm   8 km/h 68% 0 mm SCT
12:50 19.1 °C 12.2 °C 1008.7 hPa Calm   8 km/h 64% 0 mm SCT
13:00 19.3 °C 12.6 °C 1008.7 hPa NW 1.6 km/h 4.8 km/h 65% 0 mm SCT
13:10 19.8 °C 11.6 °C 1008.7 hPa NW 1.6 km/h 8 km/h 59% 0 mm SCT
13:20 20.4 °C 12.8 °C 1008.7 hPa NW 1.6 km/h 4.8 km/h 62% 0 mm SCT
13:30 20.6 °C 11.8 °C 1008.7 hPa West 3.2 km/h 11.3 km/h 57% 0 mm SCT
13:40 20.4 °C 11.6 °C 1008.7 hPa Calm   8 km/h 57% 0 mm SCT
13:50 20.8 °C 12 °C 1008.7 hPa West 1.6 km/h 9.7 km/h 57% 0 mm SCT
14:00 21.1 °C 12 °C 1009 hPa WNW 3.2 km/h 8 km/h 56% 0 mm SCT
14:10 21.4 °C 12.3 °C 1009 hPa WNW 1.6 km/h 8 km/h 56% 0 mm SCT
14:20 21.2 °C 10.9 °C 1009 hPa WSW 1.6 km/h 9.7 km/h 52% 0 mm SCT
14:30 20.6 °C 10.7 °C 1009 hPa North 1.6 km/h 11.3 km/h 53% 0 mm SCT
14:40 19.6 °C 10.8 °C 1009 hPa West 1.6 km/h 4.8 km/h 57% 0 mm SCT
14:50 19.7 °C 11.2 °C 1009 hPa Calm   9.7 km/h 58% 0 mm SCT
15:00 20 °C 11.2 °C 1009 hPa NW 1.6 km/h 9.7 km/h 57% 0 mm SCT
15:10 20.3 °C 11.2 °C 1009 hPa WNW 1.6 km/h 11.3 km/h 56% 0 mm SCT
15:20 20.7 °C 12.2 °C 1009 hPa Calm   4.8 km/h 58% 0 mm SCT
15:30 20.7 °C 12.1 °C 1008.7 hPa Calm   8 km/h 58% 0 mm SCT
15:40 21 °C 11.6 °C 1008.7 hPa Calm   4.8 km/h 55% 0 mm SCT
15:50 21.1 °C 11.4 °C 1008.7 hPa West 1.6 km/h 8 km/h 54% 0 mm SCT
16:00 20.8 °C 10.6 °C 1008.7 hPa WNW 1.6 km/h 8 km/h 52% 0 mm SCT
16:10 21.2 °C 11.8 °C 1009 hPa NW 1.6 km/h 8 km/h 55% 0 mm SCT
16:20 21.1 °C 10.5 °C 1009 hPa Calm   4.8 km/h 51% 0 mm SCT
16:40 20.6 °C 11 °C 1009 hPa Calm   3.2 km/h 54% 0 mm SCT
16:50 21.1 °C 11.4 °C 1009.4 hPa NW 1.6 km/h 8 km/h 54% 0 mm SCT
17:00 20.9 °C 10.7 °C 1009 hPa Calm   4.8 km/h 52% 0 mm SCT
17:10 20.9 °C 11.2 °C 1009 hPa Calm   8 km/h 54% 0 mm SCT
17:20 21.2 °C 11.3 °C 1009.4 hPa Calm   8 km/h 53% 0 mm SCT
17:30 20.9 °C 11.3 °C 1009.4 hPa WNW 1.6 km/h 4.8 km/h 54% 0 mm SCT
17:40 20.9 °C 11.3 °C 1009.4 hPa WNW 1.6 km/h 3.2 km/h 54% 0 mm SCT
17:50 21 °C 10.8 °C 1009.4 hPa WNW 1.6 km/h 8 km/h 52% 0 mm SCT
18:10 20.7 °C 11.6 °C 1009.7 hPa Calm   1.6 km/h 56% 0 mm SCT
18:20 20.7 °C 11.6 °C 1009.7 hPa West 1.6 km/h 4.8 km/h 56% 0 mm SCT
18:30 20.6 °C 11.5 °C 1009.7 hPa Calm   8 km/h 56% 0 mm SCT
18:40 20.3 °C 11.6 °C 1009.7 hPa Calm   1.6 km/h 57% 0 mm SCT
18:50 20.2 °C 11.1 °C 1009.7 hPa Calm   4.8 km/h 56% 0 mm SCT
19:00 20.1 °C 11.3 °C 1010 hPa Calm   3.2 km/h 57% 0 mm SCT
19:10 20.1 °C 11 °C 1010 hPa SW 1.6 km/h 8 km/h 56% 0 mm SCT
19:20 19.9 °C 11.4 °C 1010 hPa Calm   1.6 km/h 58% 0 mm SCT
19:30 19.7 °C 11.2 °C 1010 hPa Calm   1.6 km/h 58% 0 mm SCT
19:40 19.4 °C 11.2 °C 1010 hPa Calm   1.6 km/h 59% 0 mm SCT
19:50 19.3 °C 11.3 °C 1010.4 hPa Calm   3.2 km/h 60% 0 mm SCT
20:00 19.1 °C 11.4 °C 1010.4 hPa Calm     61% 0 mm SCT
20:10 18.9 °C 11.2 °C 1010.4 hPa Calm   3.2 km/h 61% 0 mm SCT
20:20 18.6 °C 11.4 °C 1010.7 hPa Calm   1.6 km/h 63% 0 mm SCT
20:30 18.3 °C 11.2 °C 1010.7 hPa Calm     63% 0 mm SCT
20:40 18.1 °C 11.4 °C 1010.7 hPa Calm     65% 0 mm SCT
20:50 17.8 °C 11.3 °C 1010.7 hPa Calm     66% 0 mm SCT
21:00 17.4 °C 11.5 °C 1011.1 hPa Calm     68% 0 mm SCT
21:10 17.1 °C 11.6 °C 1011.4 hPa Calm     70% 0 mm SCT
21:20 16.7 °C 11.6 °C 1011.1 hPa Calm     72% 0 mm SCT
21:30 16.3 °C 11.5 °C 1011.4 hPa Calm     73% 0 mm SCT
21:40 16.1 °C 11.4 °C 1011.7 hPa Calm     74% 0 mm SCT
21:50 15.8 °C 11.6 °C 1011.7 hPa Calm     76% 0 mm SCT
22:00 15.6 °C 11.8 °C 1011.7 hPa Calm     78% 0 mm SCT
22:10 15.5 °C 12.1 °C 1012.1 hPa Calm     80% 0 mm SCT
22:20 15.3 °C 11.7 °C 1012.1 hPa Calm     79% 0 mm SCT
22:30 15.2 °C 11.6 °C 1012.4 hPa Calm     79% 0 mm SCT
22:40 15.1 °C 11.4 °C 1012.4 hPa Calm     79% 0 mm SCT
22:50 14.9 °C 11.7 °C 1012.4 hPa Calm     81% 0 mm SCT
23:00 14.8 °C 11.8 °C 1012.8 hPa Calm     82% 0 mm SCT
23:10 14.7 °C 11.7 °C 1012.8 hPa Calm     82% 0 mm SCT
23:20 14.7 °C 11.4 °C 1013.1 hPa Calm     81% 0 mm SCT
23:30 14.7 °C 11.4 °C 1013.1 hPa Calm     81% 0 mm SCT
23:40 14.6 °C 11.4 °C 1013.4 hPa Calm     81% 0 mm SCT
23:50 14.5 °C 11.3 °C 1013.4 hPa Calm     81% 0 mm SCT
Piedmont Bend
Compliments of Weather Underground - 4 mb